TimePDT,TemperatureF,Dew PointF,Humidity,Sea Level PressureIn,VisibilityMPH,Wind Direction,Wind SpeedMPH,Gust SpeedMPH,PrecipitationIn,Events,Conditions,WindDirDegrees,DateUTC
12:03 AM,39.2,37.4,93,30.12,0.8,SSE,12.7,20.7,0.02,Rain,Rain,160,2013-03-20 07:03:00
12:16 AM,39.2,37.4,93,30.12,1.5,SSE,16.1,21.9,0.05,Rain,Rain,160,2013-03-20 07:16:00
12:20 AM,39.2,37.4,93,30.12,3.0,SSE,18.4,26.5,0.05,Rain,Rain,160,2013-03-20 07:20:00
12:39 AM,39.2,37.4,93,30.12,1.8,SSE,12.7,23.0,0.10,Rain,Rain,160,2013-03-20 07:39:00
12:48 AM,39.2,39.2,100,30.12,1.0,SSE,10.4,20.7,0.12,Rain,Rain,150,2013-03-20 07:48:00
12:52 AM,39.0,39.0,100,30.04,1.0,SSE,9.2,20.7,0.13,Rain,Rain,150,2013-03-20 07:52:00
12:59 AM,39.2,39.2,100,30.11,0.5,SSE,9.2,16.1,0.02,Fog-Rain,Rain,150,2013-03-20 07:59:00
1:37 AM,39.2,39.2,100,30.11,1.2,South,8.1,-,0.13,Rain,Rain,180,2013-03-20 08:37:00
1:52 AM,39.0,39.0,100,30.03,0.8,South,10.4,-,0.17,Rain,Rain,180,2013-03-20 08:52:00
2:10 AM,39.2,37.4,93,30.11,0.2,South,16.1,23.0,0.04,Fog-Rain,Rain,170,2013-03-20 09:10:00
2:18 AM,37.4,37.4,100,30.10,0.8,South,13.8,23.0,0.06,Rain,Rain,180,2013-03-20 09:18:00
2:34 AM,37.4,37.4,100,30.09,1.5,SSE,11.5,18.4,0.10,Rain,Rain,150,2013-03-20 09:34:00
2:43 AM,37.4,37.4,100,30.10,0.8,SSE,8.1,-,0.12,Rain,Rain,150,2013-03-20 09:43:00
2:52 AM,37.9,37.9,100,30.03,0.8,SSE,12.7,20.7,0.13,Rain,Rain,150,2013-03-20 09:52:00
2:58 AM,37.4,37.4,100,30.10,1.5,SSE,11.5,20.7,0.04,Rain,Rain,160,2013-03-20 09:58:00
3:13 AM,37.4,37.4,100,30.11,0.8,South,9.2,-,0.09,Rain,Rain,190,2013-03-20 10:13:00
3:41 AM,37.4,37.4,100,30.10,1.5,South,12.7,18.4,0.20,Rain,Rain,170,2013-03-20 10:41:00
3:52 AM,37.0,37.0,100,30.04,2.5,South,12.7,16.1,0.25,Rain,Rain,170,2013-03-20 10:52:00
4:01 AM,37.4,35.6,93,30.10,3.0,South,9.2,-,0.03,Rain,Rain,190,2013-03-20 11:01:00
4:17 AM,35.6,35.6,100,30.09,2.5,SSE,12.7,21.9,0.08,Rain,Rain,160,2013-03-20 11:17:00
4:27 AM,37.4,35.6,93,30.09,3.0,South,13.8,21.9,0.11,Rain,Rain,170,2013-03-20 11:27:00
4:35 AM,35.6,35.6,100,30.10,2.0,SSE,12.7,21.9,0.12,Rain,Rain,160,2013-03-20 11:35:00
4:52 AM,36.0,36.0,100,30.05,2.5,SSE,10.4,19.6,0.17,Rain,Rain,150,2013-03-20 11:52:00
5:01 AM,37.4,35.6,93,30.09,3.0,SSE,8.1,18.4,0.02,Rain,Rain,160,2013-03-20 12:01:00
5:03 AM,37.4,35.6,93,30.09,1.8,SSE,6.9,-,0.03,Rain,Rain,160,2013-03-20 12:03:00
5:11 AM,35.6,35.6,100,30.09,1.0,SSE,16.1,23.0,0.04,Rain,Rain,160,2013-03-20 12:11:00
5:24 AM,35.6,35.6,100,30.09,1.8,SE,10.4,19.6,0.07,Rain,Light Rain,130,2013-03-20 12:24:00
5:32 AM,35.6,35.6,100,30.09,2.0,SSE,13.8,21.9,0.09,Rain,Light Rain,160,2013-03-20 12:32:00
5:44 AM,35.6,35.6,100,30.10,1.2,SSE,9.2,-,0.11,Rain,Rain,160,2013-03-20 12:44:00
5:52 AM,36.0,35.1,97,30.06,0.8,Variable,6.9,-,0.13,Rain,Rain,0,2013-03-20 12:52:00
6:11 AM,35.6,35.6,100,30.10,1.0,SSE,8.1,17.3,0.04,Rain,Light Rain,150,2013-03-20 13:11:00
6:52 AM,35.1,35.1,100,30.09,0.8,SSE,6.9,-,0.14,Rain,Heavy Rain,160,2013-03-20 13:52:00
7:02 AM,35.6,33.8,93,30.08,1.0,SE,8.1,-,0.03,Rain,Rain,130,2013-03-20 14:02:00
7:22 AM,35.6,33.8,93,30.09,2.0,SE,11.5,17.3,0.04,Rain,Light Rain,140,2013-03-20 14:22:00
7:29 AM,33.8,33.8,100,30.09,1.2,SE,10.4,19.6,0.06,Snow,Light Snow,130,2013-03-20 14:29:00
7:52 AM,33.1,33.1,100,30.08,0.5,SE,9.2,17.3,0.12,Fog-Snow,Snow,140,2013-03-20 14:52:00
8:17 AM,33.8,33.8,100,30.08,1.0,Variable,6.9,-,0.07,Snow,Light Snow,0,2013-03-20 15:17:00
8:20 AM,33.8,33.8,100,30.08,2.0,SE,8.1,-,0.07,Snow,Light Snow,130,2013-03-20 15:20:00
8:47 AM,35.6,35.6,100,30.09,1.2,SSE,6.9,-,0.12,Rain,Light Rain,150,2013-03-20 15:47:00
8:52 AM,36.0,35.1,97,30.08,0.8,SSE,8.1,-,0.13,Rain,Light Rain,150,2013-03-20 15:52:00
8:59 AM,35.6,35.6,100,30.10,0.8,SSE,8.1,-,0.02,Rain,Rain,150,2013-03-20 15:59:00
9:25 AM,35.6,35.6,100,30.10,0.2,SSE,8.1,-,0.09,Fog-Rain,Rain,150,2013-03-20 16:25:00
9:52 AM,37.0,37.0,100,30.07,0.2,SSE,16.1,21.9,0.10,Fog-Rain,Light Rain,160,2013-03-20 16:52:00
10:21 AM,37.4,37.4,100,30.09,0.2,South,17.3,24.2,0.02,Fog-Rain,Light Rain,170,2013-03-20 17:21:00
10:52 AM,39.0,39.0,100,30.06,0.2,South,17.3,27.6,0.02,Fog-Rain,Light Rain,170,2013-03-20 17:52:00
11:27 AM,37.4,37.4,100,30.10,0.8,South,12.7,32.2,0.15,Rain,Rain,170,2013-03-20 18:27:00
11:37 AM,39.2,39.2,100,30.10,0.2,South,19.6,26.5,0.18,Fog-Rain,Rain,170,2013-03-20 18:37:00
11:51 AM,37.9,37.9,100,30.07,1.2,South,19.6,28.8,0.20,Rain,Rain,180,2013-03-20 18:51:00
11:58 AM,37.4,37.4,100,30.10,2.0,South,19.6,27.6,0.00,Rain,Rain,170,2013-03-20 18:58:00
12:26 PM,39.2,37.4,93,30.11,0.8,SSE,15.0,23.0,0.11,Rain,Rain,160,2013-03-20 19:26:00
12:36 PM,37.4,37.4,100,30.12,1.8,South,23.0,29.9,0.12,Rain,Light Rain,180,2013-03-20 19:36:00
12:48 PM,37.4,37.4,100,30.12,0.8,South,18.4,28.8,0.16,Rain,Heavy Rain,190,2013-03-20 19:48:00
12:52 PM,37.0,37.0,100,30.11,0.8,South,18.4,28.8,0.16,Rain,Heavy Rain,170,2013-03-20 19:52:00
1:09 PM,37.4,37.4,100,30.13,1.0,South,11.5,20.7,0.09,Rain,Rain,180,2013-03-20 20:09:00
1:18 PM,37.4,37.4,100,30.13,0.2,South,10.4,-,0.13,Fog-Rain,Heavy Rain,170,2013-03-20 20:18:00
1:52 PM,39.0,37.9,96,30.09,0.5,South,15.0,23.0,0.17,Fog-Rain,Light Rain,170,2013-03-20 20:52:00
2:47 PM,39.2,39.2,100,30.12,0.5,South,17.3,24.2,0.14,Fog-Rain,Light Rain,180,2013-03-20 21:47:00
2:52 PM,39.0,39.0,100,30.09,0.8,South,15.0,25.3,0.14,Rain,Light Rain,170,2013-03-20 21:52:00
3:07 PM,39.2,39.2,100,30.12,0.2,SSE,15.0,24.2,0.01,Fog-Rain,Light Rain,160,2013-03-20 22:07:00
3:52 PM,39.0,39.0,100,30.09,0.2,South,12.7,-,0.03,Fog-Rain,Light Rain,170,2013-03-20 22:52:00
4:03 PM,39.2,39.2,100,30.11,0.2,South,13.8,-,0.01,Fog-Rain,Light Rain,170,2013-03-20 23:03:00
4:24 PM,39.2,39.2,100,30.10,0.2,SSE,12.7,-,0.02,Fog-Rain,Light Rain,160,2013-03-20 23:24:00
4:52 PM,39.9,39.9,100,30.08,0.2,South,11.5,-,0.02,Fog-Rain,Light Rain,170,2013-03-20 23:52:00
5:15 PM,39.2,39.2,100,30.09,0.2,SSE,12.7,-,0.02,Fog-Rain,Light Rain,160,2013-03-21 00:15:00
5:52 PM,41.0,41.0,100,30.06,0.2,South,11.5,-,0.04,Fog-Rain,Light Rain,180,2013-03-21 00:52:00
6:08 PM,41.0,39.2,93,30.09,0.2,South,11.5,-,0.01,Fog-Rain,Light Rain,190,2013-03-21 01:08:00
6:52 PM,41.0,41.0,100,30.07,0.2,South,9.2,-,0.06,Fog-Rain,Light Rain,190,2013-03-21 01:52:00
7:08 PM,41.0,41.0,100,30.09,0.2,SSW,15.0,21.9,0.03,Fog-Rain,Rain,200,2013-03-21 02:08:00
7:15 PM,41.0,39.2,93,30.09,0.2,SSW,13.8,21.9,0.04,Fog-Rain,Light Rain,200,2013-03-21 02:15:00
7:52 PM,39.9,39.9,100,30.08,0.2,SSW,15.0,20.7,0.04,Fog-Rain,Light Rain,200,2013-03-21 02:52:00
7:59 PM,39.2,39.2,100,30.09,0.5,SSW,15.0,26.5,0.00,Fog-Rain,Light Rain,200,2013-03-21 02:59:00
8:10 PM,39.2,39.2,100,30.09,0.2,SSW,13.8,18.4,0.01,Fog-Rain,Light Rain,200,2013-03-21 03:10:00
8:18 PM,39.2,39.2,100,30.09,0.5,SSW,12.7,18.4,0.01,Fog,Fog,210,2013-03-21 03:18:00
8:30 PM,39.2,39.2,100,30.10,1.5,SSW,10.4,-,0.01,Rain,Light Rain,200,2013-03-21 03:30:00
8:38 PM,39.2,39.2,100,30.10,0.8,South,12.7,24.2,0.01,Rain,Light Rain,190,2013-03-21 03:38:00
8:52 PM,39.0,39.0,100,30.08,0.8,South,9.2,20.7,0.01,,Mist,190,2013-03-21 03:52:00
8:58 PM,39.2,39.2,100,30.10,0.2,South,13.8,21.9,N/A,Fog,Fog,170,2013-03-21 03:58:00
9:52 PM,39.9,39.9,100,30.08,0.2,South,10.4,20.7,0.01,Fog,Fog,190,2013-03-21 04:52:00
10:21 PM,39.2,39.2,100,30.11,0.8,SSW,12.7,20.7,0.00,Rain,Light Rain,200,2013-03-21 05:21:00
10:23 PM,39.2,39.2,100,30.11,1.2,South,13.8,20.7,0.00,Rain,Light Rain,190,2013-03-21 05:23:00
10:41 PM,39.2,39.2,100,30.11,0.5,SSW,12.7,18.4,0.02,Fog-Rain,Rain,200,2013-03-21 05:41:00
10:52 PM,39.0,39.0,100,30.08,0.8,South,11.5,20.7,0.03,Rain,Light Rain,190,2013-03-21 05:52:00
11:52 PM,39.0,39.0,100,30.06,1.0,South,11.5,18.4,0.03,Rain,Light Rain,190,2013-03-21 06:52:00